This is the latest recevied weather packets stored in our database for station/object KF6RAL-6. If no packets are shown the sender has not sent any weather packets the latest 10 day(s).
| Time | Temp. | Humidity | Pressure | Rain* | Wind** | Luminosity | Snow |
|---|---|---|---|---|---|---|---|
| 1788444576 | 17.22° C | 44% | 1013 hPa | 0 mm | - | - | - |
| 1788443734 | 16.67° C | 46% | 1013.4 hPa | 0 mm | - | - | - |
| 1788442892 | 16.11° C | 45% | 1012.9 hPa | 0 mm | - | - | - |
| 1788442472 | 15.56° C | 47% | 1013 hPa | 0 mm | - | - | - |
| 1788442051 | 15° C | 56% | 1012.8 hPa | 0 mm | - | - | - |
| 1788441630 | 15° C | 53% | 1012.7 hPa | 0 mm | - | - | - |
| 1788441208 | 14.44° C | 52% | 1012.6 hPa | 0 mm | - | - | - |
| 1788440366 | 13.89° C | 50% | 1012.8 hPa | 0 mm | - | - | - |
| 1788439945 | 13.89° C | 54% | 1012.2 hPa | 0 mm | - | - | - |
| 1788439524 | 14.44° C | 53% | 1012.8 hPa | 0 mm | - | - | - |
| 1788439103 | 14.44° C | 51% | 1012.8 hPa | 0 mm | - | - | - |
| 1788438682 | 15° C | 50% | 1012.7 hPa | 0 mm | - | - | - |
| 1788438261 | 15.56° C | 48% | 1012.4 hPa | 0 mm | - | - | - |
| 1788437840 | 15.56° C | 50% | 1012.3 hPa | 0 mm | - | - | - |
| 1788437419 | 15° C | 55% | 1012.6 hPa | 0 mm | - | - | - |
| 1788436998 | 15° C | 52% | 1012.4 hPa | 0 mm | - | - | - |
| 1788436577 | 15° C | 52% | 1012.3 hPa | 0 mm | - | - | - |
| 1788436156 | 15° C | 52% | 1011.8 hPa | 0 mm | - | - | - |
| 1788435735 | 15° C | 48% | 1011.9 hPa | 0 mm | - | - | - |
| 1788435314 | 16.11° C | 47% | 1012.6 hPa | 0 mm | - | - | - |
| 1788434893 | 15.56° C | 47% | 1012.5 hPa | 0 mm | - | - | - |
| 1788434472 | 15.56° C | 47% | 1012.5 hPa | 0 mm | - | - | - |
| 1788434051 | 15.56° C | 48% | 1012.5 hPa | 0 mm | - | - | - |
| 1788433630 | 15.56° C | 51% | 1012.4 hPa | 0 mm | - | - | - |
| 1788433209 | 16.11° C | 49% | 1012.4 hPa | 0 mm | - | - | - |
* Rain latest hour (hover to see other rain measurements)
** Current wind speed in m/s (hover to see current wind gust speed)